Flag for Brazil Weather past 2 weeks in Rio de Janeiro, Rio de Janeiro, Brazil

Now
82 °F

Passing clouds.


Feels Like: 89 °F
Forecast: 75 / 85 °F
Wind: 3 mph from Northeast

Location: Rio De Janeiro Airport


UV Index: 5 (Moderate)

Visibility: 6 mi


Pressure: 29.95 "Hg

Humidity: 79%

Dew point: 75 °F

Location of Rio de JaneiroLocation

Historic Weather in Rio de Janeiro

°F

Rio de Janeiro temperature yesterday

Maximum temperature yesterday: 82 °F (at 12:00 PM)
Minimum temperature yesterday: 72 °F (at 6:00 AM)
Average temperature yesterday: 77 °F

Past Weeks' High & Low Weather Summary

 TemperatureHumidityPressure
High93 °F (Apr 12, 12:00 PM)100% (Apr 8, 6:00 AM)30.15 "Hg (Apr 8, 6:00 AM)
Low70 °F (Apr 14, 7:00 PM)39% (Apr 12, 12:00 PM)29.74 "Hg (Apr 9, 3:00 PM)
Average77 °F82%29.96 "Hg
* Reported Apr 4 12:00 Noon — Apr 19 12:00 Noon, Rio de Janeiro, Weather by CustomWeather, © 2014

Note: Actual official high and low records may vary slightly from our data, if they occured in-between our weather recording intervals... More about our weather records

Advertising

Historic Weather Conditions — Data for Previous 24 hours

 ConditionsComfort  
Time TempWeatherWind HumidityBarometerVisibility
12:00 PM
Apr 19
82 °FPassing clouds.3 mph79%29.95 "Hg6 mi
11:00 AM81 °FPassing clouds.6 mph84%29.95 "Hg4 mi
10:00 AM81 °FClear.6 mph84%29.98 "Hg4 mi
9:00 AM79 °FPassing clouds.5 mph89%29.98 "Hg4 mi
8:00 AM77 °FFog.3 mph94%29.98 "Hg3 mi
7:00 AM75 °FScattered clouds.3 mph94%29.95 "Hg4 mi
6:00 AM73 °FPartly sunny.5 mph100%29.92 "Hg4 mi
11:00 PM
Apr 18
77 °FClear.3 mph89%29.95 "Hg10 mi
10:00 PM77 °FClear.8 mph89%29.95 "Hg10 mi
9:00 PM77 °FClear.8 mph89%29.95 "Hg10 mi
8:00 PM75 °FClear.9 mph94%29.92 "Hg10 mi
7:00 PM75 °FClear.10 mph94%29.89 "Hg10 mi
6:00 PM75 °FClear.12 mph94%29.89 "Hg10 mi
5:00 PM77 °FClear.13 mph83%29.89 "Hg10 mi
4:00 PM79 °FPassing clouds.12 mph79%29.86 "HgN/A
3:00 PM81 °FPassing clouds.14 mph74%29.86 "HgN/A
2:00 PM79 °FPassing clouds.12 mph79%29.86 "HgN/A
1:00 PM82 °FPassing clouds.5 mph70%29.89 "HgN/A
Weather by CustomWeather, © 2014

See weather overview